Weather History for Phoenix Deer Valley, AZ

Change the Weather History Date:

Friday, June 14, 2013

  Actual Average Record
Temperature  
Mean Temperature 88 °F -  
Max Temperature 100 °F 97 °F 108 °F (2000)
Min Temperature 77 °F 72 °F 64 °F (1998)
Cooling Degree Days 24    
Growing Degree Days 38 (Base 50)    
Moisture  
Dew Point 43 °F    
Average Humidity 20    
Maximum Humidity 36    
Minimum Humidity 11    
Precipitation  
Precipitation 0.00 in - - ()
Sea Level Pressure  
Sea Level Pressure 29.72 in    
Wind  
Wind Speed 4 mph (SW)    
Max Wind Speed 12 mph    
Max Gust Speed 17 mph    
Visibility 10 miles    
Events      
Averages and records for this station are not official NWS values.
T = Trace of Precipitation, MM = Missing Value Source: NWS Daily Summary

Daily Weather History Graph

Daily Weather History Graph

Search for Another Location

Airport:

Trip Planner

Search our weather history database for the weather conditions in past years. The results will help you decide how hot, cold, wet, or windy it might be!

Date:

Astronomy

Jun. 14, 2013 Rise Set
Actual Time 5:17 AM MST 7:40 PM MST
Civil Twilight 4:48 AM MST 8:09 PM MST
Nautical Twilight 4:12 AM MST 8:44 PM MST
Astronomical Twilight 3:33 AM MST 9:23 PM MST
Moon 10:42 AM MST (6/14) 11:33 PM MST (6/14)
Length of Visible Light 15h 20m
Length of Day
14h 22m
Waxing Crescent, 31% of the Moon is Illuminated
Jun 14
Waxing Crescent
Jun 16
First Quarter
Jun 23
Full
Jun 29
Last Quarter
Jul 8
New

Hourly Weather History & Observations

Time (MST) Temp. Dew Point Humidity Pressure Visibility Wind Dir Wind Speed Gust Speed Precip Events Conditions
12:53 AM 86.0 °F 48.0 °F 27% 29.73 in 10.0 mi Calm Calm - N/A   Clear
1:53 AM 84.9 °F 48.0 °F 28% 29.72 in 10.0 mi WSW 3.5 mph - N/A   Clear
2:53 AM 82.0 °F 48.0 °F 30% 29.73 in 10.0 mi Calm Calm - N/A   Clear
3:53 AM 80.1 °F 48.0 °F 32% 29.73 in 10.0 mi NNE 3.5 mph - N/A   Clear
4:53 AM 77.0 °F 46.0 °F 33% 29.74 in 10.0 mi ESE 3.5 mph - N/A   Clear
5:53 AM 77.0 °F 48.0 °F 36% 29.76 in 10.0 mi East 5.8 mph - N/A   Clear
6:53 AM 82.9 °F 48.9 °F 31% 29.78 in 10.0 mi Calm Calm - N/A   Clear
7:53 AM 88.0 °F 46.9 °F 24% 29.79 in 10.0 mi SW 5.8 mph - N/A   Clear
8:53 AM 89.1 °F 45.0 °F 22% 29.79 in 10.0 mi WSW 6.9 mph - N/A   Clear
9:53 AM 91.0 °F 43.0 °F 19% 29.78 in 10.0 mi WSW 5.8 mph - N/A   Clear
10:53 AM 91.9 °F 43.0 °F 18% 29.78 in 10.0 mi Variable 3.5 mph - N/A   Clear
11:53 AM 93.9 °F 43.0 °F 17% 29.77 in 10.0 mi Variable 6.9 mph - N/A   Clear
12:53 PM 95.0 °F 42.1 °F 16% 29.75 in 10.0 mi Variable 5.8 mph - N/A   Clear
1:53 PM 99.0 °F 41.0 °F 14% 29.72 in 10.0 mi West 9.2 mph - N/A   Clear
2:53 PM 100.0 °F 39.9 °F 13% 29.70 in 10.0 mi West 11.5 mph 16.1 mph N/A   Clear
3:53 PM 100.9 °F 39.0 °F 12% 29.67 in 10.0 mi SW 9.2 mph - N/A   Clear
4:53 PM 100.9 °F 37.0 °F 11% 29.65 in 10.0 mi WSW 8.1 mph 17.3 mph N/A   Clear
5:53 PM 100.0 °F 39.0 °F 12% 29.63 in 10.0 mi Variable 3.5 mph - N/A   Clear
6:53 PM 99.0 °F 39.9 °F 13% 29.63 in 10.0 mi WSW 9.2 mph - N/A   Clear
7:53 PM 97.0 °F 37.9 °F 13% 29.63 in 10.0 mi SSW 5.8 mph - N/A   Clear
8:53 PM 96.1 °F 39.0 °F 14% 29.65 in 10.0 mi Calm Calm - N/A   Clear
9:53 PM 91.0 °F 37.9 °F 15% 29.67 in 10.0 mi Calm Calm - N/A   Clear
10:53 PM 91.9 °F 41.0 °F 17% 29.68 in 10.0 mi SW 10.4 mph - N/A   Clear
11:53 PM 90.0 °F 41.0 °F 18% 29.69 in 10.0 mi SW 8.1 mph - N/A   Clear